| time (UTC) | temp C | wind direction | speed KPH | gust KPH | rain 1hr cm | rain 24hr cm | rain mn cm | humidity % | barometer mb |
| 20260505085104 | 17 | 114 | 3.2 | 4.8 | 0.00 | 0.03 | 0.03 | 68 | 1020.5 |
| 20260505084605 | 17 | 114 | 0.0 | 3.2 | 0.00 | 0.03 | 0.03 | 68 | 1020.4 |
| 20260505084104 | 17 | 114 | 1.6 | 3.2 | 0.00 | 0.03 | 0.03 | 67 | 1020.3 |
| 20260505083604 | 17 | 114 | 0.0 | 1.6 | 0.00 | 0.03 | 0.03 | 67 | 1020.4 |
| 20260505082604 | 17 | 114 | 0.0 | 4.8 | 0.00 | 0.03 | 0.03 | 65 | 1020.2 |
| 20260505081607 | 18 | 114 | 3.2 | 4.8 | 0.00 | 0.03 | 0.03 | 64 | 1020.0 |
| 20260505081105 | 18 | 114 | 3.2 | 4.8 | 0.00 | 0.03 | 0.03 | 63 | 1019.9 |
| 20260505080605 | 18 | 114 | 3.2 | 4.8 | 0.00 | 0.03 | 0.03 | 63 | 1019.9 |
| 20260505080105 | 18 | 114 | 3.2 | 9.7 | 0.00 | 0.03 | 0.03 | 62 | 1019.8 |
| 20260505075103 | 18 | 127 | 6.4 | 11.3 | 0.00 | 0.03 | 0.03 | 61 | 1019.6 |
| 20260505074604 | 18 | 138 | 8.0 | 12.9 | 0.00 | 0.03 | 0.03 | 61 | 1019.5 |
| 20260505074104 | 19 | 125 | 4.8 | 11.3 | 0.00 | 0.03 | 0.03 | 61 | 1019.3 |
| 20260505073604 | 19 | 130 | 9.7 | 19.3 | 0.00 | 0.03 | 0.03 | 61 | 1019.2 |
| 20260505072604 | 20 | 106 | 4.8 | 12.9 | 0.00 | 0.03 | 0.03 | 59 | 1019.0 |
| 20260505072104 | 20 | 231 | 3.2 | 4.8 | 0.00 | 0.03 | 0.03 | 58 | 1018.9 |
| 20260505071604 | 20 | 101 | 3.2 | 4.8 | 0.00 | 0.03 | 0.03 | 56 | 1018.8 |
| 20260505071104 | 21 | 119 | 3.2 | 9.7 | 0.00 | 0.03 | 0.03 | 54 | 1018.8 |
| 20260505070604 | 21 | 229 | 3.2 | 4.8 | 0.00 | 0.03 | 0.03 | 46 | 1018.7 |
| 20260505070104 | 21 | 261 | 1.6 | 4.8 | 0.00 | 0.03 | 0.03 | 46 | 1018.5 |
| 20260505065604 | 21 | 261 | 1.6 | 4.8 | 0.00 | 0.03 | 0.03 | 46 | 1018.6 |
| 20260505065104 | 21 | 277 | 4.8 | 12.9 | 0.00 | 0.03 | 0.03 | 46 | 1018.3 |
| 20260505064604 | 21 | 260 | 3.2 | 4.8 | 0.00 | 0.03 | 0.03 | 46 | 1018.3 |
| 20260505064104 | 22 | 280 | 4.8 | 8.0 | 0.00 | 0.03 | 0.03 | 45 | 1018.3 |
| 20260505063104 | 22 | 271 | 9.7 | 14.5 | 0.00 | 0.03 | 0.03 | 44 | 1018.2 |
| 20260505062604 | 22 | 274 | 9.7 | 16.1 | 0.00 | 0.03 | 0.03 | 44 | 1018.2 |
| 20260505062104 | 22 | 292 | 8.0 | 14.5 | 0.00 | 0.03 | 0.03 | 44 | 1018.1 |
| 20260505061604 | 22 | 275 | 1.6 | 4.8 | 0.00 | 0.03 | 0.03 | 44 | 1018.1 |
| 20260505061104 | 22 | 236 | 6.4 | 8.0 | 0.00 | 0.03 | 0.03 | 44 | 1018.1 |
| 20260505060604 | 22 | 292 | 1.6 | 8.0 | 0.00 | 0.03 | 0.03 | 44 | 1018.0 |
| 20260505055604 | 22 | 284 | 4.8 | 16.1 | 0.00 | 0.03 | 0.03 | 43 | 1017.9 |
| 20260505055104 | 22 | 291 | 8.0 | 16.1 | 0.00 | 0.03 | 0.03 | 44 | 1018.0 |
| 20260505054604 | 22 | 310 | 3.2 | 19.3 | 0.00 | 0.03 | 0.03 | 43 | 1018.0 |
| 20260505054103 | 22 | 299 | 8.0 | 16.1 | 0.00 | 0.03 | 0.03 | 44 | 1018.0 |
| 20260505053604 | 22 | 286 | 8.0 | 14.5 | 0.00 | 0.03 | 0.03 | 43 | 1018.0 |
| 20260505053104 | 22 | 276 | 8.0 | 16.1 | 0.00 | 0.03 | 0.03 | 44 | 1018.0 |
| 20260505052604 | 22 | 285 | 8.0 | 16.1 | 0.00 | 0.03 | 0.03 | 45 | 1018.0 |
| 20260505052104 | 22 | 256 | 8.0 | 14.5 | 0.00 | 0.03 | 0.03 | 43 | 1017.9 |
| 20260505051104 | 23 | 242 | 8.0 | 19.3 | 0.00 | 0.03 | 0.03 | 43 | 1017.9 |
| 20260505050604 | 22 | 252 | 8.0 | 12.9 | 0.00 | 0.03 | 0.03 | 44 | 1017.8 |
| 20260505050104 | 22 | 353 | 3.2 | 14.5 | 0.00 | 0.03 | 0.03 | 44 | 1017.8 |
| 20260505041604 | 22 | 309 | 9.7 | 12.9 | 0.00 | 0.03 | 0.03 | 45 | 1017.3 |
| 20260505040603 | 22 | 253 | 11.3 | 19.3 | 0.00 | 0.03 | 0.03 | 46 | 1017.6 |
| 20260505035604 | 22 | 277 | 9.7 | 19.3 | 0.00 | 0.03 | 0.03 | 45 | 1017.6 |
| 20260505035104 | 22 | 267 | 8.0 | 16.1 | 0.00 | 0.03 | 0.03 | 46 | 1017.6 |
| 20260505034604 | 22 | 280 | 4.8 | 24.1 | 0.00 | 0.03 | 0.03 | 45 | 1017.4 |
| 20260505034104 | 22 | 270 | 8.0 | 25.7 | 0.00 | 0.03 | 0.03 | 47 | 1017.6 |
| 20260505033605 | 22 | 240 | 8.0 | 19.3 | 0.00 | 0.03 | 0.03 | 48 | 1017.7 |
| 20260505033104 | 22 | 249 | 4.8 | 12.9 | 0.00 | 0.03 | 0.03 | 47 | 1017.6 |
| 20260505032604 | 22 | 282 | 12.9 | 19.3 | 0.00 | 0.03 | 0.03 | 48 | 1017.6 |
| 20260505032104 | 23 | 313 | 4.8 | 11.3 | 0.00 | 0.03 | 0.03 | 50 | 1017.8 |
| 20260505031605 | 22 | 311 | 3.2 | 12.9 | 0.00 | 0.03 | 0.03 | 51 | 1017.7 |
| 20260505031105 | 21 | 286 | 3.2 | 8.0 | 0.00 | 0.03 | 0.03 | 52 | 1017.8 |
| 20260505030604 | 21 | 224 | 4.8 | 16.1 | 0.00 | 0.03 | 0.03 | 52 | 1017.9 |
| 20260505030104 | 22 | 268 | 6.4 | 16.1 | 0.00 | 0.03 | 0.03 | 50 | 1017.9 |
| 20260505025604 | 22 | 270 | 6.4 | 16.1 | 0.00 | 0.03 | 0.03 | 50 | 1018.0 |
| 20260505025104 | 21 | 287 | 12.9 | 20.9 | 0.00 | 0.03 | 0.03 | 50 | 1018.1 |
| 20260505024604 | 21 | 294 | 11.3 | 19.3 | 0.00 | 0.03 | 0.03 | 50 | 1018.2 |
| 20260505024103 | 21 | 254 | 11.3 | 19.3 | 0.00 | 0.03 | 0.03 | 51 | 1018.0 |
| 20260505023604 | 21 | 248 | 6.4 | 24.1 | 0.00 | 0.03 | 0.03 | 51 | 1018.0 |
| 20260505023104 | 21 | 286 | 14.5 | 20.9 | 0.00 | 0.03 | 0.03 | 50 | 1018.2 |
| 20260505022604 | 21 | 280 | 6.4 | 22.5 | 0.00 | 0.03 | 0.03 | 52 | 1018.1 |
| 20260505022103 | 21 | 290 | 8.0 | 22.5 | 0.00 | 0.03 | 0.03 | 52 | 1018.2 |
| 20260505021104 | 21 | 275 | 9.7 | 20.9 | 0.00 | 0.03 | 0.03 | 52 | 1018.2 |
| 20260505020604 | 21 | 285 | 11.3 | 27.4 | 0.00 | 0.03 | 0.03 | 52 | 1018.3 |
| 20260505020104 | 21 | 268 | 11.3 | 20.9 | 0.00 | 0.03 | 0.03 | 53 | 1018.5 |
| 20260505015604 | 21 | 273 | 11.3 | 25.7 | 0.00 | 0.05 | 0.03 | 52 | 1018.6 |
| 20260505014104 | 21 | 287 | 16.1 | 27.4 | 0.00 | 0.10 | 0.03 | 53 | 1018.7 |
| 20260505013604 | 21 | 290 | 14.5 | 19.3 | 0.00 | 0.15 | 0.03 | 54 | 1018.8 |
| 20260505012603 | 21 | 313 | 9.7 | 19.3 | 0.00 | 0.20 | 0.03 | 54 | 1018.9 |
| 20260505012104 | 20 | 292 | 8.0 | 19.3 | 0.00 | 0.23 | 0.03 | 55 | 1019.0 |
| 20260505011604 | 20 | 291 | 14.5 | 25.7 | 0.00 | 0.23 | 0.03 | 55 | 1019.1 |
| 20260505011105 | 20 | 300 | 11.3 | 24.1 | 0.00 | 0.25 | 0.03 | 56 | 1019.1 |
| 20260505010103 | 20 | 278 | 8.0 | 22.5 | 0.00 | 0.25 | 0.03 | 57 | 1019.3 |
| 20260505005604 | 20 | 297 | 19.3 | 27.4 | 0.00 | 0.28 | 0.03 | 56 | 1019.4 |
| 20260505005104 | 20 | 278 | 12.9 | 33.8 | 0.00 | 0.30 | 0.03 | 57 | 1019.3 |
| 20260505004604 | 20 | 280 | 14.5 | 24.1 | 0.00 | 0.33 | 0.03 | 58 | 1019.5 |
| 20260505004104 | 19 | 287 | 20.9 | 29.0 | 0.00 | 0.36 | 0.03 | 57 | 1019.5 |
| 20260505003603 | 20 | 301 | 17.7 | 32.2 | 0.00 | 0.41 | 0.03 | 58 | 1019.5 |
| 20260505002604 | 19 | 285 | 14.5 | 25.7 | 0.00 | 0.43 | 0.03 | 59 | 1019.6 |
| 20260505002104 | 19 | 274 | 16.1 | 32.2 | 0.00 | 0.43 | 0.03 | 59 | 1019.6 |
| 20260505001604 | 19 | 291 | 17.7 | 24.1 | 0.00 | 0.46 | 0.03 | 61 | 1019.6 |
| 20260505001103 | 19 | 288 | 8.0 | 16.1 | 0.00 | 0.46 | 0.03 | 64 | 1019.7 |
| 20260505000603 | 19 | 311 | 12.9 | 20.9 | 0.00 | 0.48 | 0.03 | 63 | 1019.7 |
| 20260505000104 | 18 | 288 | 4.8 | 22.5 | 0.00 | 0.48 | 0.03 | 64 | 1019.7 |
| 20260504235603 | 18 | 286 | 11.3 | 20.9 | 0.00 | 0.48 | 0.03 | 64 | 1019.7 |
| 20260504234604 | 18 | 299 | 11.3 | 20.9 | 0.00 | 0.51 | 0.03 | 66 | 1019.8 |
| 20260504234104 | 18 | 318 | 11.3 | 19.3 | 0.00 | 0.51 | 0.03 | 65 | 1019.9 |
| 20260504233104 | 18 | 266 | 3.2 | 8.0 | 0.00 | 0.53 | 0.03 | 67 | 1020.0 |
| 20260504232604 | 18 | 289 | 4.8 | 11.3 | 0.00 | 0.56 | 0.03 | 67 | 1020.0 |
| 20260504232104 | 17 | 300 | 9.7 | 24.1 | 0.00 | 0.56 | 0.03 | 67 | 1020.0 |
| 20260504231604 | 17 | 301 | 11.3 | 20.9 | 0.00 | 0.56 | 0.03 | 67 | 1020.0 |
| 20260504231104 | 17 | 301 | 16.1 | 29.0 | 0.00 | 0.56 | 0.03 | 67 | 1019.8 |
| 20260504230604 | 17 | 286 | 9.7 | 19.3 | 0.00 | 0.56 | 0.03 | 67 | 1019.8 |
| 20260504225604 | 17 | 308 | 6.4 | 16.1 | 0.00 | 0.56 | 0.03 | 69 | 1019.8 |
| 20260504224104 | 16 | 320 | 8.0 | 16.1 | 0.00 | 0.56 | 0.03 | 73 | 1019.6 |
| 20260504223604 | 16 | 312 | 8.0 | 16.1 | 0.00 | 0.56 | 0.03 | 74 | 1019.6 |
| 20260504223104 | 16 | 335 | 11.3 | 16.1 | 0.00 | 0.56 | 0.03 | 76 | 1019.7 |
| 20260504222605 | 15 | 320 | 8.0 | 16.1 | 0.00 | 0.56 | 0.03 | 78 | 1019.9 |
| 20260504222104 | 15 | 321 | 8.0 | 14.5 | 0.00 | 0.56 | 0.03 | 80 | 1019.8 |
| 20260504221604 | 15 | 327 | 11.3 | 16.1 | 0.00 | 0.56 | 0.03 | 81 | 1019.7 |
| 20260504221104 | 15 | 327 | 11.3 | 19.3 | 0.00 | 0.56 | 0.03 | 82 | 1019.8 |
| 20260504220104 | 14 | 314 | 8.0 | 14.5 | 0.00 | 0.56 | 0.03 | 85 | 1019.9 |
| 20260504215104 | 13 | 285 | 6.4 | 9.7 | 0.03 | 0.56 | 0.03 | 89 | 1019.8 |
| 20260504214605 | 13 | 290 | 4.8 | 4.8 | 0.03 | 0.56 | 0.03 | 90 | 1019.7 |
| 20260504214104 | 13 | 284 | 3.2 | 4.8 | 0.03 | 0.56 | 0.03 | 92 | 1019.6 |
| 20260504213104 | 12 | 297 | 3.2 | 4.8 | 0.03 | 0.56 | 0.03 | 92 | 1019.3 |
| 20260504212603 | 12 | 336 | 1.6 | 4.8 | 0.03 | 0.56 | 0.03 | 92 | 1019.2 |
| 20260504212104 | 12 | 336 | 1.6 | 3.2 | 0.03 | 0.56 | 0.03 | 92 | 1019.3 |
| 20260504211604 | 12 | 336 | 1.6 | 4.8 | 0.03 | 0.56 | 0.03 | 92 | 1019.2 |
| 20260504211104 | 12 | 15 | 3.2 | 4.8 | 0.03 | 0.56 | 0.03 | 92 | 1019.2 |
| 20260504210605 | 11 | 66 | 0.0 | 1.6 | 0.03 | 0.56 | 0.03 | 92 | 1019.1 |
| 20260504210105 | 11 | 66 | 1.6 | 3.2 | 0.03 | 0.56 | 0.03 | 92 | 1019.0 |
| 20260504205605 | 11 | 43 | 0.0 | 3.2 | 0.00 | 0.53 | 0.00 | 91 | 1018.8 |
| 20260504204604 | 11 | 46 | 1.6 | 3.2 | 0.00 | 0.53 | 0.00 | 90 | 1018.6 |
| 20260504204104 | 11 | 55 | 1.6 | 3.2 | 0.00 | 0.53 | 0.00 | 90 | 1018.5 |
| 20260504203604 | 11 | 230 | 0.0 | 0.0 | 0.00 | 0.53 | 0.00 | 90 | 1018.4 |
| 20260504203104 | 11 | 230 | 0.0 | 1.6 | 0.00 | 0.53 | 0.00 | 90 | 1018.4 |
| 20260504201604 | 12 | 230 | 1.6 | 4.8 | 0.00 | 0.53 | 0.00 | 90 | 1018.4 |
| 20260504200604 | 12 | 230 | 1.6 | 3.2 | 0.00 | 0.53 | 0.00 | 90 | 1018.2 |
| 20260504200104 | 12 | 230 | 0.0 | 1.6 | 0.00 | 0.53 | 0.00 | 89 | 1018.1 |
| 20260504194604 | 12 | 230 | 1.6 | 3.2 | 0.00 | 0.53 | 0.00 | 89 | 1017.9 |
| 20260504193604 | 12 | 230 | 0.0 | 1.6 | 0.00 | 0.53 | 0.00 | 89 | 1017.9 |
| 20260504192604 | 12 | 230 | 0.0 | 0.0 | 0.00 | 0.53 | 0.00 | 89 | 1017.8 |
| 20260504192104 | 12 | 230 | 0.0 | 0.0 | 0.00 | 0.53 | 0.00 | 89 | 1017.8 |
| 20260504191104 | 12 | 230 | 0.0 | 1.6 | 0.00 | 0.53 | 0.00 | 89 | 1017.8 |
| 20260504190604 | 12 | 230 | 1.6 | 3.2 | 0.00 | 0.53 | 0.00 | 89 | 1017.8 |
| 20260504185604 | 12 | 230 | 0.0 | 0.0 | 0.00 | 0.53 | 0.00 | 89 | 1017.8 |
| 20260504184604 | 12 | 230 | 0.0 | 0.0 | 0.00 | 0.53 | 0.00 | 89 | 1017.6 |
| 20260504184104 | 12 | 230 | 0.0 | 3.2 | 0.00 | 0.53 | 0.00 | 89 | 1017.4 |
| 20260504183104 | 13 | 230 | 1.6 | 4.8 | 0.00 | 0.53 | 0.00 | 89 | 1017.2 |
| 20260504182604 | 13 | 230 | 1.6 | 3.2 | 0.00 | 0.53 | 0.00 | 89 | 1017.3 |
| 20260504182104 | 13 | 230 | 0.0 | 0.0 | 0.00 | 0.53 | 0.00 | 89 | 1017.2 |
| 20260504181104 | 13 | 230 | 0.0 | 3.2 | 0.00 | 0.53 | 0.00 | 88 | 1017.3 |
| 20260504180604 | 13 | 230 | 1.6 | 4.8 | 0.00 | 0.53 | 0.00 | 89 | 1017.3 |
| 20260504175604 | 13 | 230 | 3.2 | 4.8 | 0.00 | 0.53 | 0.00 | 88 | 1017.1 |
| 20260504175104 | 13 | 230 | 4.8 | 4.8 | 0.00 | 0.53 | 0.00 | 88 | 1017.1 |
| 20260504174604 | 13 | 307 | 3.2 | 4.8 | 0.00 | 0.53 | 0.00 | 88 | 1017.2 |
| 20260504174104 | 13 | 307 | 0.0 | 3.2 | 0.00 | 0.53 | 0.00 | 88 | 1017.1 |
| 20260504173605 | 14 | 307 | 0.0 | 1.6 | 0.00 | 0.53 | 0.00 | 88 | 1017.2 |
| 20260504173104 | 14 | 307 | 0.0 | 1.6 | 0.00 | 0.53 | 0.00 | 88 | 1017.1 |
| 20260504172604 | 14 | 307 | 0.0 | 1.6 | 0.00 | 0.53 | 0.00 | 88 | 1017.2 |
| 20260504172104 | 14 | 307 | 1.6 | 4.8 | 0.00 | 0.53 | 0.00 | 88 | 1017.2 |
| 20260504171604 | 14 | 307 | 1.6 | 3.2 | 0.00 | 0.53 | 0.00 | 89 | 1017.3 |
| 20260504170603 | 14 | 307 | 0.0 | 1.6 | 0.00 | 0.53 | 0.00 | 89 | 1017.3 |
| 20260504170104 | 14 | 307 | 0.0 | 0.0 | 0.00 | 0.53 | 0.00 | 89 | 1017.3 |
| 20260504151104 | 16 | 268 | 3.2 | 8.0 | 0.00 | 0.53 | 0.00 | 92 | 1017.0 |
| 20260504150604 | 16 | 257 | 4.8 | 8.0 | 0.00 | 0.53 | 0.00 | 92 | 1017.0 |
| 20260504141104 | 17 | 272 | 1.6 | 3.2 | 0.00 | 0.53 | 0.00 | 93 | 1017.0 |
| 20260504140604 | 17 | 272 | 3.2 | 11.3 | 0.00 | 0.53 | 0.00 | 93 | 1017.1 |
| 20260504140104 | 17 | 281 | 4.8 | 8.0 | 0.00 | 0.53 | 0.00 | 93 | 1017.1 |
| 20260504130604 | 17 | 259 | 6.4 | 12.9 | 0.00 | 0.53 | 0.53 | 93 | 1017.2 |
| 20260504130104 | 17 | 284 | 6.4 | 11.3 | 0.00 | 0.53 | 0.53 | 93 | 1017.2 |
| 20260504120104 | 16 | 270 | 4.8 | 8.0 | 0.00 | 0.53 | 0.53 | 92 | 1017.2 |
| 20260504110604 | 17 | 243 | 9.7 | 14.5 | 0.00 | 0.53 | 0.53 | 91 | 1016.7 |
| 20260504100604 | 18 | 245 | 1.6 | 3.2 | 0.00 | 0.53 | 0.53 | 89 | 1015.9 |
| 20260504100105 | 18 | 245 | 0.0 | 3.2 | 0.00 | 0.53 | 0.53 | 89 | 1015.9 |
| 20260504090104 | 20 | 336 | 3.2 | 4.8 | 0.00 | 0.53 | 0.53 | 81 | 1015.9 |